Olathe, KS

5:48 PM CDT on September 26, 2017 (GMT -0500)
Johnson County Executive

Weather History for KOJC - June, 2012

Change the Weather History Date:

Wednesday, June 13, 2012

  Actual Average Record
Temperature  
Mean Temperature 72 °F 73 °F  
Max Temperature 84 °F 82 °F 101 °F (1953)
Min Temperature 59 °F 63 °F 49 °F (1985)
Degree Days  
Heating Degree Days 0 0  
Month to date heating degree days 8 6  
Since 1 June heating degree days 8 6  
Since 1 July heating degree days 3815 4932  
Cooling Degree Days 7 8  
Month to date cooling degree days 88 89  
Year to date cooling degree days 348 193  
Since 1 June cooling degree days 88 89  
Growing Degree Days 22 (Base 50)    
Moisture  
Dew Point 55 °F    
Average Humidity 54    
Maximum Humidity 69    
Minimum Humidity 39    
Precipitation  
Precipitation 0.00 in 0.23 in 2.47 in (1966)
Month to date precipitation 0.33 2.76  
Year to date precipitation 11.72 17.50  
Sea Level Pressure  
Sea Level Pressure 30.00 in    
Wind  
Wind Speed 9 mph (SE)    
Max Wind Speed 17 mph    
Max Gust Speed 26 mph    
Visibility 10 miles    
Events      
T = Trace of Precipitation, MM = Missing Value Source: NWS Daily Summary

Daily Weather History Graph

Daily Weather History Graph

Search for Another Location

Airport or City:

Trip Planner

Search our weather history database for the weather conditions in past years. The results will help you decide how hot, cold, wet, or windy it might be!

Date:

Astronomy

Jun. 13, 2012 Rise Set
Actual Time 5:53 AM CDT 8:45 PM CDT
Civil Twilight 5:21 AM CDT 9:17 PM CDT
Nautical Twilight 4:40 AM CDT 9:57 PM CDT
Astronomical Twilight 3:54 AM CDT 10:43 PM CDT
Moon 2:04 AM CDT (6/13) 3:34 PM CDT (6/13)
Length of Visible Light 15h 56m
Length of Day
14h 52m
Waning Crescent, 29% of the Moon is Illuminated
Jun 13
Waning Crescent
Jun 19
New
Jun 26
First Quarter
Jul 3
Full
Jul 10
Last Quarter

Hourly Weather History & Observations

Time (CDT) Temp. Heat Index Dew Point Humidity Pressure Visibility Wind Dir Wind Speed Gust Speed Precip Events Conditions
12:53 AM 64.0 °F - 51.1 °F 63% 30.09 in 10.0 mi SE 4.6 mph - N/A   Clear
1:53 AM 64.0 °F - 50.0 °F 60% 30.09 in 10.0 mi ESE 3.5 mph - N/A   Clear
2:53 AM 63.0 °F - 51.1 °F 65% 30.09 in 10.0 mi ENE 4.6 mph - N/A   Clear
3:53 AM 61.0 °F - 50.0 °F 67% 30.07 in 10.0 mi East 4.6 mph - N/A   Clear
4:53 AM 61.0 °F - 50.0 °F 67% 30.07 in 10.0 mi ENE 8.1 mph - N/A   Clear
6:53 AM 60.1 °F - 50.0 °F 69% 30.08 in 10.0 mi SE 5.8 mph - N/A   Clear
7:53 AM 63.0 °F - 50.0 °F 63% 30.06 in 10.0 mi SE 9.2 mph - N/A   Clear
8:53 AM 66.9 °F - 51.1 °F 57% 30.06 in 10.0 mi SSE 11.5 mph 19.6 mph N/A   Clear
9:53 AM 72.0 °F - 53.1 °F 51% 30.05 in 10.0 mi SSE 10.4 mph - N/A   Clear
10:53 AM 75.0 °F - 52.0 °F 44% 30.04 in 10.0 mi SSE 15.0 mph - N/A   Clear
11:53 AM 77.0 °F - 54.0 °F 45% 30.03 in 10.0 mi SSE 11.5 mph - N/A   Clear
12:53 PM 80.1 °F 80.0 °F 54.0 °F 40% 30.01 in 10.0 mi SSE 10.4 mph - N/A   Clear
1:53 PM 81.0 °F 80.5 °F 54.0 °F 39% 29.98 in 10.0 mi South 9.2 mph - N/A   Clear
2:53 PM 82.9 °F 82.1 °F 55.9 °F 39% 29.96 in 10.0 mi South 12.7 mph 18.4 mph N/A   Clear
3:53 PM 84.0 °F 83.3 °F 57.0 °F 40% 29.94 in 10.0 mi SSE 9.2 mph - N/A   Partly Cloudy
5:53 PM 82.9 °F 83.3 °F 61.0 °F 47% 29.92 in 10.0 mi SSE 11.5 mph 20.7 mph N/A   Clear
6:53 PM 82.0 °F 83.0 °F 62.1 °F 51% 29.91 in 10.0 mi SE 10.4 mph - N/A   Clear
7:53 PM 80.1 °F 81.2 °F 62.1 °F 54% 29.91 in 10.0 mi SE 10.4 mph - N/A   Clear
8:53 PM 78.1 °F - 62.1 °F 58% 29.91 in 10.0 mi SE 9.2 mph - N/A   Clear
9:53 PM 75.9 °F - 62.1 °F 62% 29.91 in 10.0 mi SSE 10.4 mph - N/A   Clear
10:53 PM 73.9 °F - 62.1 °F 66% 29.94 in 10.0 mi SSE 9.2 mph - N/A   Clear
11:53 PM 73.0 °F - 62.1 °F 68% 29.94 in 10.0 mi SSE 8.1 mph - N/A   Clear